Weather History for Halley, Antarctica

Change the Weather History Date:

Monday, April 29, 2013

  Actual Average Record
Temperature  
Mean Temperature -28 °F -  
Max Temperature -20 °F - - ()
Min Temperature -37 °F - - ()
Degree Days  
Heating Degree Days 94    
Moisture  
Dew Point -33 °F    
Average Humidity 59    
Maximum Humidity 67    
Minimum Humidity 45    
Precipitation  
Precipitation 0.00 in - - ()
Sea Level Pressure  
Sea Level Pressure 29.49 in    
Wind  
Wind Speed 6 mph ()    
Max Wind Speed 16 mph    
Max Gust Speed -    
Visibility 0.0 miles    
Events Fog    
T = Trace of Precipitation, MM = Missing Value Source: Averaged Metar Reports

Daily Weather History Graph

Daily Weather History Graph

Search for Another Location

Airport:

Trip Planner

Search our weather history database for the weather conditions in past years. The results will help you decide how hot, cold, wet, or windy it might be!

Date:

Astronomy

Apr. 29, 2013 Rise Set
Actual Time 12:25 PM GMT 2:57 PM GMT
Civil Twilight 10:01 AM GMT 5:20 PM GMT
Nautical Twilight 8:15 AM GMT 7:06 PM GMT
Astronomical Twilight 6:39 AM GMT 8:42 PM GMT
Moon No Moon Rise No Moon Set
Length of Visible Light 7h 19m
Length of Day
2h 32m
Waning Gibbous, 82% of the Moon is Illuminated
Apr 29
Waning Gibbous
May 2
Last Quarter
May 10
New
May 18
First Quarter
May 25
Full

Hourly Weather History & Observations

Time (GMT) Temp. Dew Point Humidity Pressure Visibility Wind Dir Wind Speed Gust Speed Precip Events Conditions
12:00 AM -36 °F -44 °F 45% 29.46 in 31 mi WSW 3.5 mph - -   Clear
1:00 AM -34 °F -40 °F 55% 29.46 in - SW 4.6 mph - -  
2:00 AM -27 °F -33 °F 58% 29.47 in - SW 3.5 mph - -  
3:00 AM -28 °F -34 °F 58% 29.47 in - SW 5.8 mph - -  
4:00 AM -29 °F -35 °F 57% 29.47 in - WSW 8.1 mph - -  
5:00 AM -29 °F -35 °F 57% 29.48 in - WSW 8.1 mph - -  
6:00 AM -25 °F -31 °F 60% 29.49 in - South 4.6 mph - -  
7:00 AM -23 °F -28 °F 65% 29.49 in - South 2.3 mph - -  
8:00 AM -22 °F -27 °F 67% 29.50 in - West 3.5 mph - -  
9:00 AM -20 °F -25 °F 65% 29.49 in 44 mi WNW 2.3 mph - - Fog Patches of Fog
10:00 AM -22 °F -28 °F 62% 29.49 in - WSW 2.3 mph - -  
11:00 AM -22 °F -27 °F 65% 29.50 in - WSW 6.9 mph - -  
12:00 PM -23 °F -29 °F 59% 29.50 in 0 mi WSW 8.1 mph - - Fog Patches of Fog
1:00 PM -28 °F -34 °F 59% 29.50 in - SW 6.9 mph - -  
2:00 PM -31 °F -37 °F 55% 29.51 in - West 11.5 mph - -  
3:00 PM -30 °F -36 °F 58% 29.51 in 25 mi West 11.5 mph - - Fog Patches of Fog
4:00 PM -29 °F -36 °F 55% 29.51 in - WSW 12.7 mph - -  
5:00 PM -29 °F -35 °F 59% 29.51 in - WSW 15.0 mph - -  
6:00 PM -28 °F -34 °F 60% 29.51 in 31 mi West 16.1 mph - -   Partly Cloudy
7:00 PM -28 °F -34 °F 59% 29.49 in - WSW 11.5 mph - -  
8:00 PM -28 °F -34 °F 56% 29.49 in - West 15.0 mph - -  
9:00 PM -27 °F -33 °F 60% 29.48 in - West 15.0 mph - -  
10:00 PM -27 °F -33 °F 58% 29.47 in - WSW 15.0 mph - -  
11:00 PM -30 °F -36 °F 56% 29.48 in - WSW 10.4 mph - -